Location: Mountain Grove
(34.0887°N, 86.6172°W)
Time: 15:16:34
(UTC+00:00)

Cosmos 1263 - Pass Details

Date: 14 July 2020
Orbit: 384 x 1341 km, 82.9° (Epoch: 12 August)

Event Time Altitude Azimuth Distance (km) Brightness Sun altitude
Rises 09:05:59 0° 350° (N) 2,272 8.4 -17.8°
Reaches altitude 10° 09:07:54 10° 347° (NNW) 1,428 7.3 -17.5°
Maximum altitude 09:10:53 65° 265° (W) 458 4.1 -17.0°
Enters shadow 09:11:42 44° 202° (SSW) 597 4.6 -16.9°
